This demonstration page uses our WeatherBlox Daily Observations layout. Learn more.

Left ArrowRight Arrow

39.12711, -84.51439

Hourly Observations for August 3, 2016

Temp ( °F °C ) Dew Point ( °F °C ) Humidity (%) Winds ( mph kmh ) Pressure ( in mb ) Visibility ( mi km ) Precip ( " mm )
12:53 am 00:53 Clear with Mist and Fog 72 22.2 71 21.7 97 97 N N/A 30.03 1017 6 10 N/A
1:53 am 01:53 Clear with Mist and Fog 70 21.1 70 21.1 100 100 N N/A 30.03 1017 4 6 N/A
2:53 am 02:53 Clear with Mist and Fog 71 21.7 71 21.7 100 100 NE 3 6 30.02 1017 5 8 N/A
3:53 am 03:53 Clear with Mist and Fog 70 21.1 70 21.1 100 100 NNE 3 6 30.03 1017 5 8 N/A
4:53 am 04:53 Clear with Mist and Fog 69 20.6 69 20.6 100 100 N N/A 30.03 1017 4 6 N/A
5:08 am 05:08 Clear with Mist and Fog 68 20 68 20 100 100 N N/A 30.00 1016 2 3 N/A
5:25 am 05:25 Clear with Mist and Fog 69 20.6 69 20.6 100 100 ENE 3 6 30.00 1016 3 5 N/A
5:53 am 05:53 Clear with Mist and Fog 70 21.1 70 21.1 100 100 N N/A 30.03 1017 4 6 N/A
6:16 am 06:16 Clear with Mist and Fog 70 21 70 21 100 100 N N/A 30.03 1017 2 3 N/A
6:34 am 06:34 Mostly Cloudy with Mist and Fog 69 20.6 69 20.6 100 100 N N/A 30.03 1017 1 2 N/A
6:41 am 06:41 Mostly Cloudy with Fog 69 20.6 69 20.6 100 100 N N/A 30.03 1017 1 1 N/A
6:46 am 06:46 Sunny with Mist and Fog 70 21 70 21 100 100 N N/A 30.03 1017 3 4 N/A
6:48 am 06:48 Partly Cloudy with Patchy Fog 70 21 70 21 100 100 N N/A 30.03 1017 3 5 N/A
6:53 am 06:53 Partly Cloudy with Patchy Fog 69 20.6 69 20.6 100 100 N N/A 30.04 1017 5 8 N/A
7:53 am 07:53 Sunny with Mist and Fog 72 22.2 72 22.2 100 100 N N/A 30.04 1017 6 10 N/A
8:53 am 08:53 Sunny 76 24.4 71 21.7 85 85 N N/A 30.05 1018 9 14 N/A
9:53 am 09:53 Sunny 80 26.7 71 21.7 74 74 N 3 6 30.06 1018 9 14 N/A
10:53 am 10:53 Sunny 84 28.9 72 22.2 67 67 NE 3 6 30.04 1017 10 16 N/A
11:53 am 11:53 Sunny 87 30.6 70 21.1 57 57 NNE 6 9 30.04 1017 10 16 N/A
12:53 pm 12:53 Mostly Sunny 88 31.1 69 20.6 54 54 NE 6 9 30.03 1017 10 16 N/A
1:53 pm 13:53 Mostly Cloudy 88 31.1 70 21.1 55 55 E 5 7 30.02 1017 10 16 N/A
2:53 pm 14:53 Mostly Cloudy 88 31.1 70 21.1 55 55 ESE 6 9 30.01 1016 10 16 N/A
3:53 pm 15:53 Partly Cloudy 88 31.1 69 20.6 54 54 VRB 3 6 29.99 1016 10 16 N/A
4:53 pm 16:53 Mostly Cloudy 87 30.6 70 21.1 57 57 N N/A 29.99 1016 10 16 N/A
5:53 pm 17:53 Mostly Cloudy 85 29.4 74 23.3 70 70 SSW 3 6 29.99 1016 10 16 N/A
6:53 pm 18:53 Cloudy 83 28.3 77 25 82 82 N N/A 29.98 1015 10 16 N/A
7:53 pm 19:53 Mostly Cloudy 84 28.9 75 23.9 74 74 NE 3 6 29.97 1015 10 16 N/A
8:53 pm 20:53 Mostly Cloudy 78 25.6 75 23.9 90 90 N N/A 29.97 1015 10 16 N/A
9:53 pm 21:53 Cloudy 77 25 74 23.3 90 90 N N/A 29.98 1015 9 14 N/A
10:53 pm 22:53 Partly Cloudy 74 23.3 73 22.8 97 97 N N/A 29.99 1016 8 13 N/A
11:53 pm 23:53 Clear 73 22.8 73 22.8 100 100 N N/A 29.98 1015 7 11 N/A

Powered by AerisWeather